�������l�o���
Date,Time,MP-1(��Sv/h),MP-2(��Sv/h),MP-3(��Sv/h),MP-4(��Sv/h),MP-5(��Sv/h),MP-6(��Sv/h),MP-7(��Sv/h),����,����(m/s),���J
2020/04/08,00:00,0.180,0.161,0.270,0.246,0.259,0.138,0.085,��쐼,1.9,��
2020/04/08,00:10,0.179,0.161,0.268,0.247,0.256,0.139,0.084,��쐼,3.1,��
2020/04/08,00:20,0.180,0.162,0.269,0.246,0.257,0.139,0.084,�쐼,3.1,��
2020/04/08,00:30,0.179,0.163,0.270,0.246,0.257,0.139,0.085,�쐼,3.1,��
2020/04/08,00:40,0.179,0.163,0.269,0.246,0.257,0.138,0.084,�쐼,2.5,��
2020/04/08,00:50,0.181,0.163,0.270,0.246,0.257,0.139,0.085,�쐼,2.3,��
2020/04/08,01:00,0.180,0.164,0.269,0.246,0.257,0.139,0.086,���쐼,2.4,��
2020/04/08,01:10,0.180,0.163,0.270,0.246,0.258,0.139,0.085,���쐼,1.8,��
2020/04/08,01:20,0.179,0.162,0.270,0.247,0.258,0.139,0.085,��,2.3,��
2020/04/08,01:30,0.181,0.163,0.268,0.246,0.256,0.139,0.085,��,2.8,��
2020/04/08,01:40,0.179,0.163,0.269,0.246,0.257,0.139,0.085,���k��,2.2,��
2020/04/08,01:50,0.179,0.163,0.269,0.246,0.257,0.139,0.085,��,2.5,��
2020/04/08,02:00,0.180,0.162,0.270,0.246,0.257,0.139,0.084,��,3.4,��
2020/04/08,02:10,0.181,0.163,0.269,0.246,0.257,0.138,0.084,���쐼,4.7,��
2020/04/08,02:20,0.180,0.163,0.269,0.246,0.257,0.139,0.085,���쐼,4.9,��
2020/04/08,02:30,0.180,0.162,0.270,0.245,0.259,0.139,0.084,���쐼,6.1,��
2020/04/08,02:40,0.181,0.162,0.269,0.245,0.257,0.138,0.083,���쐼,6.3,��
2020/04/08,02:50,0.180,0.162,0.270,0.246,0.257,0.138,0.084,���쐼,5.9,��
2020/04/08,03:00,0.179,0.163,0.269,0.245,0.258,0.139,0.085,���쐼,5.6,��
2020/04/08,03:10,0.179,0.163,0.269,0.245,0.256,0.139,0.085,���쐼,5.1,��
2020/04/08,03:20,0.180,0.162,0.268,0.245,0.255,0.139,0.084,���쐼,4.2,��
2020/04/08,03:30,0.180,0.162,0.270,0.246,0.257,0.139,0.084,���쐼,4.1,��
2020/04/08,03:40,0.179,0.164,0.269,0.245,0.257,0.138,0.085,���쐼,4.9,��
2020/04/08,03:50,0.179,0.163,0.269,0.245,0.258,0.139,0.084,���쐼,4.5,��
2020/04/08,04:00,0.180,0.162,0.268,0.245,0.256,0.138,0.084,���쐼,5.5,��
2020/04/08,04:10,0.179,0.163,0.270,0.246,0.257,0.139,0.084,���쐼,5.2,��
2020/04/08,04:20,0.181,0.163,0.269,0.246,0.258,0.138,0.084,���쐼,4.5,��
2020/04/08,04:30,0.180,0.162,0.269,0.245,0.257,0.138,0.085,���쐼,3.7,��
2020/04/08,04:40,0.179,0.163,0.270,0.246,0.257,0.139,0.084,���쐼,3.5,��
2020/04/08,04:50,0.180,0.162,0.269,0.246,0.257,0.139,0.084,���쐼,3.5,��
2020/04/08,05:00,0.179,0.162,0.270,0.246,0.256,0.138,0.085,���쐼,3.1,��
2020/04/08,05:10,0.179,0.162,0.270,0.245,0.257,0.139,0.083,���쐼,3.4,��
2020/04/08,05:20,0.179,0.164,0.270,0.246,0.257,0.139,0.085,���쐼,2.6,��
2020/04/08,05:30,0.180,0.162,0.270,0.246,0.256,0.138,0.084,���쐼,3.3,��
2020/04/08,05:40,0.181,0.163,0.269,0.246,0.258,0.139,0.085,���쐼,3.1,��
2020/04/08,05:50,0.180,0.162,0.269,0.246,0.257,0.139,0.085,���쐼,2.5,��
2020/04/08,06:00,0.180,0.162,0.269,0.247,0.256,0.139,0.084,���쐼,2.1,��
2020/04/08,06:10,0.179,0.163,0.269,0.246,0.256,0.139,0.084,���쐼,1.5,��
2020/04/08,06:20,0.180,0.163,0.270,0.246,0.257,0.139,0.084,���쐼,1.2,��
2020/04/08,06:30,0.180,0.162,0.270,0.246,0.258,0.139,0.084,-,CALM,��
2020/04/08,06:40,0.180,0.162,0.268,0.245,0.257,0.139,0.085,-,CALM,��
2020/04/08,06:50,0.180,0.161,0.269,0.246,0.257,0.139,0.084,�쐼,0.7,��
2020/04/08,07:00,0.180,0.162,0.268,0.245,0.257,0.139,0.084,���쐼,2.0,��
2020/04/08,07:10,0.180,0.162,0.269,0.245,0.257,0.138,0.084,�쐼,2.3,��
2020/04/08,07:20,0.179,0.164,0.269,0.246,0.257,0.139,0.085,�쐼,1.9,��
2020/04/08,07:30,0.179,0.161,0.269,0.245,0.256,0.139,0.084,���쐼,1.7,��
2020/04/08,07:40,0.179,0.163,0.267,0.245,0.257,0.138,0.084,-,CALM,��
2020/04/08,07:50,0.180,0.162,0.269,0.246,0.258,0.139,0.084,��,0.6,��
2020/04/08,08:00,0.180,0.162,0.266,0.245,0.258,0.140,0.084,-,CALM,��
2020/04/08,08:10,0.179,0.162,0.267,0.246,0.257,0.140,0.084,��쓌,1.1,��
2020/04/08,08:20,0.180,0.162,0.268,0.243,0.257,0.139,0.085,��쓌,1.2,��
2020/04/08,08:30,0.179,0.162,0.269,0.244,0.257,0.139,0.084,��쓌,1.8,��
2020/04/08,08:40,0.179,0.163,0.268,0.244,0.260,0.139,0.085,�쓌,2.5,��
2020/04/08,08:50,0.178,0.162,0.268,0.245,0.256,0.139,0.084,�쓌,2.9,��
2020/04/08,09:00,0.180,0.163,0.270,0.244,0.259,0.139,0.085,�쓌,3.0,��
2020/04/08,09:10,0.178,0.162,0.268,0.246,0.257,0.138,0.085,�쓌,3.4,��
2020/04/08,09:20,0.179,0.162,0.268,0.246,0.259,0.138,0.085,�쓌,2.8,��
2020/04/08,09:30,0.179,0.162,0.268,0.244,0.256,0.138,0.084,�쓌,2.9,��
2020/04/08,09:40,0.178,0.162,0.270,0.247,0.258,0.138,0.085,�쓌,2.7,��
2020/04/08,09:50,0.180,0.162,0.268,0.245,0.258,0.139,0.085,�쓌,1.7,��
2020/04/08,10:00,0.179,0.162,0.267,0.245,0.256,0.139,0.084,�쓌,2.3,��
2020/04/08,10:10,0.178,0.163,0.270,0.246,0.259,0.139,0.085,�쓌,3.6,��
2020/04/08,10:20,0.180,0.162,0.269,0.243,0.256,0.138,0.084,�쓌,4.5,��
2020/04/08,10:30,0.178,0.164,0.269,0.247,0.258,0.140,0.084,�쓌,5.2,��
2020/04/08,10:40,0.180,0.162,0.270,0.244,0.256,0.139,0.085,�쓌,4.9,��
2020/04/08,10:50,0.180,0.163,0.269,0.247,0.258,0.140,0.086,�쓌,3.6,��
2020/04/08,11:00,0.179,0.163,0.271,0.246,0.257,0.139,0.085,�쓌,3.2,��
2020/04/08,11:10,0.181,0.163,0.267,0.245,0.257,0.138,0.084,�쓌,4.7,��
2020/04/08,11:20,0.179,0.161,0.270,0.246,0.257,0.139,0.084,-,CALM,��
2020/04/08,11:30,0.180,0.163,0.269,0.244,0.255,0.137,0.084,��쓌,1.5,��
2020/04/08,11:40,0.180,0.162,0.269,0.246,0.258,0.138,0.083,��,2.8,��
2020/04/08,11:50,0.178,0.163,0.270,0.245,0.255,0.138,0.084,�쓌,6.2,��
2020/04/08,12:00,0.180,0.163,0.268,0.244,0.256,0.140,0.084,�쓌,5.0,��
2020/04/08,12:10,0.179,0.162,0.269,0.247,0.258,0.138,0.083,��쓌,5.6,��
2020/04/08,12:20,0.178,0.162,0.270,0.245,0.257,0.138,0.084,��쓌,6.5,��
2020/04/08,12:30,0.180,0.163,0.268,0.247,0.259,0.138,0.084,��쓌,6.7,��
2020/04/08,12:40,0.178,0.161,0.271,0.244,0.255,0.139,0.084,��쓌,6.5,��
2020/04/08,12:50,0.178,0.163,0.268,0.248,0.259,0.139,0.084,��쓌,7.4,��
2020/04/08,13:00,0.180,0.162,0.269,0.245,0.256,0.139,0.084,��쓌,8.6,��
2020/04/08,13:10,0.178,0.162,0.268,0.246,0.257,0.138,0.084,��쓌,9.2,��
2020/04/08,13:20,0.179,0.162,0.268,0.248,0.257,0.138,0.083,�쓌,8.4,��
2020/04/08,13:30,0.180,0.163,0.271,0.245,0.254,0.139,0.084,�쓌,8.6,��
2020/04/08,13:40,0.178,0.162,0.268,0.247,0.258,0.139,0.083,�쓌,8.6,��
2020/04/08,13:50,0.180,0.161,0.270,0.246,0.258,0.138,0.084,��쓌,8.6,��
2020/04/08,14:00,0.179,0.162,0.270,0.247,0.256,0.139,0.084,��쓌,7.3,��
2020/04/08,14:10,0.178,0.162,0.269,0.245,0.257,0.138,0.084,��쓌,8.1,��
2020/04/08,14:20,0.180,0.163,0.270,0.247,0.256,0.138,0.083,��쓌,6.6,��
2020/04/08,14:30,0.179,0.163,0.269,0.246,0.257,0.138,0.084,��,6.7,��
2020/04/08,14:40,0.178,0.162,0.271,0.246,0.259,0.139,0.083,��쓌,7.2,��
2020/04/08,14:50,0.180,0.162,0.271,0.246,0.256,0.138,0.084,��쓌,7.4,��
2020/04/08,15:00,0.178,0.163,0.268,0.246,0.258,0.138,0.084,�쓌,6.7,��
2020/04/08,15:10,0.178,0.163,0.270,0.247,0.257,0.138,0.084,��쓌,7.2,��
2020/04/08,15:20,0.181,0.162,0.269,0.246,0.257,0.138,0.084,��쓌,6.1,��
2020/04/08,15:30,0.178,0.162,0.271,0.247,0.258,0.138,0.085,��,5.5,��
2020/04/08,15:40,0.180,0.163,0.271,0.247,0.255,0.139,0.083,��,4.7,��
2020/04/08,15:50,0.180,0.163,0.270,0.247,0.257,0.138,0.084,��,4.2,��
2020/04/08,16:00,0.179,0.163,0.271,0.248,0.257,0.139,0.084,��,4.8,��
2020/04/08,16:10,0.180,0.163,0.270,0.245,0.257,0.138,0.084,��쓌,5.9,��
2020/04/08,16:20,0.178,0.162,0.271,0.248,0.258,0.140,0.083,��쓌,4.9,��
2020/04/08,16:30,0.180,0.163,0.270,0.246,0.255,0.139,0.084,��쓌,5.9,��
2020/04/08,16:40,0.179,0.163,0.271,0.247,0.258,0.138,0.084,��,4.3,��
2020/04/08,16:50,0.180,0.163,0.270,0.247,0.257,0.138,0.084,��,3.4,��
2020/04/08,17:00,0.179,0.163,0.270,0.248,0.256,0.139,0.084,��,4.2,��
2020/04/08,17:10,0.181,0.162,0.270,0.248,0.258,0.138,0.084,��쓌,4.3,��
2020/04/08,17:20,0.179,0.163,0.271,0.246,0.256,0.139,0.084,��쓌,4.1,��
2020/04/08,17:30,0.180,0.162,0.270,0.248,0.259,0.139,0.084,��쓌,4.5,��
2020/04/08,17:40,0.179,0.163,0.271,0.247,0.258,0.139,0.084,��쓌,4.0,��
2020/04/08,17:50,0.179,0.163,0.270,0.247,0.259,0.138,0.084,��쓌,4.6,��
2020/04/08,18:00,0.180,0.162,0.269,0.246,0.258,0.139,0.083,��쓌,3.9,��
2020/04/08,18:10,0.179,0.164,0.272,0.246,0.258,0.138,0.083,��쓌,3.7,��
2020/04/08,18:20,0.180,0.163,0.270,0.249,0.257,0.139,0.085,��,3.0,��
2020/04/08,18:30,0.179,0.163,0.271,0.247,0.257,0.139,0.083,��,3.3,��
2020/04/08,18:40,0.181,0.164,0.271,0.247,0.258,0.139,0.084,��쓌,4.7,��
2020/04/08,18:50,0.180,0.162,0.270,0.246,0.256,0.140,0.084,��쓌,4.4,��
2020/04/08,19:00,0.180,0.163,0.272,0.246,0.259,0.138,0.084,��쓌,4.7,��
2020/04/08,19:10,0.179,0.163,0.270,0.249,0.258,0.139,0.084,��쓌,3.9,��
2020/04/08,19:20,0.179,0.162,0.270,0.246,0.258,0.139,0.084,��쓌,3.8,��
2020/04/08,19:30,0.180,0.163,0.272,0.247,0.258,0.138,0.085,��,2.5,��
2020/04/08,19:40,0.179,0.163,0.271,0.248,0.256,0.139,0.084,��,2.5,��
2020/04/08,19:50,0.180,0.163,0.270,0.246,0.258,0.139,0.085,��,2.4,��
2020/04/08,20:00,0.180,0.163,0.270,0.247,0.258,0.140,0.084,��,2.0,��
2020/04/08,20:10,0.180,0.163,0.270,0.248,0.256,0.139,0.084,��,2.2,��
2020/04/08,20:20,0.181,0.163,0.271,0.247,0.259,0.139,0.083,��,1.9,��
2020/04/08,20:30,0.179,0.162,0.270,0.248,0.257,0.139,0.084,�쐼,1.7,��
2020/04/08,20:40,0.180,0.162,0.270,0.247,0.258,0.139,0.084,��,2.3,��
2020/04/08,20:50,0.180,0.163,0.271,0.246,0.258,0.139,0.084,���k��,1.6,��
2020/04/08,21:00,0.180,0.164,0.272,0.248,0.257,0.139,0.084,�k��,2.6,��
2020/04/08,21:10,0.181,0.163,0.270,0.247,0.259,0.138,0.084,�k�k��,2.1,��
2020/04/08,21:20,0.180,0.162,0.272,0.247,0.258,0.138,0.084,�k�k��,2.1,��
2020/04/08,21:30,0.180,0.164,0.272,0.248,0.258,0.139,0.085,�k,1.6,��
2020/04/08,21:40,0.180,0.162,0.272,0.248,0.259,0.138,0.084,�k,1.6,��
2020/04/08,21:50,0.179,0.163,0.272,0.247,0.258,0.139,0.085,�k,2.0,��
2020/04/08,22:00,0.181,0.163,0.269,0.247,0.258,0.139,0.084,�k,1.9,��
2020/04/08,22:10,0.180,0.163,0.271,0.248,0.258,0.139,0.084,�k�k��,1.7,��
2020/04/08,22:20,0.179,0.163,0.272,0.247,0.257,0.140,0.084,�k�k��,1.5,��
2020/04/08,22:30,0.181,0.164,0.271,0.248,0.259,0.139,0.083,�k,1.0,��
2020/04/08,22:40,0.181,0.163,0.271,0.249,0.258,0.139,0.085,�k�k��,1.5,��
2020/04/08,22:50,0.179,0.164,0.273,0.246,0.257,0.139,0.084,�k�k��,1.4,��
2020/04/08,23:00,0.180,0.164,0.272,0.248,0.258,0.140,0.085,�k�k��,2.1,��
2020/04/08,23:10,0.180,0.164,0.271,0.249,0.257,0.140,0.084,�k��,2.3,��
2020/04/08,23:20,0.181,0.163,0.271,0.248,0.257,0.140,0.084,�k�k��,4.9,��
2020/04/08,23:30,0.180,0.163,0.271,0.246,0.258,0.140,0.085,�k�k��,5.8,��
2020/04/08,23:40,0.181,0.162,0.272,0.247,0.258,0.139,0.085,�k�k��,6.3,��
2020/04/08,23:50,0.180,0.163,0.272,0.247,0.259,0.140,0.085,�k,6.3,��
